Simultaneous Nadir Overpasses (SNOs) Predictions

Prediction of SNOs between GOES-15 and NPP Satellite Orbit:

Table of predicted SNOs for the next 14.0 days since TLE Epoch: 10/26/2024
Index Date Time (GOES-15) GOES-15 Lat,Lon NPP Lat,Lon Distance(km) Time Diff (sec)
1 10/26/2024 21:11:04 0.16, 61.36 -0.22, 63.06 194.06 80
2 10/28/2024 09:33:02 -0.13, 61.38 -0.94, 57.75 413.87 80
3 10/29/2024 09:16:57 -0.14, 61.39 0.06, 62.28 102.02 80
4 10/30/2024 21:38:47 0.12, 61.39 1.07, 57.00 499.16 80
5 10/31/2024 21:17:21 0.14, 61.40 0.13, 61.55 15.75 80
6 11/03/2024 09:20:34 -0.12, 61.47 -0.26, 60.76 79.69 80
7 11/04/2024 09:04:28 -0.14, 61.48 0.70, 65.31 435.40 80
8 11/05/2024 21:26:18 0.11, 61.49 0.41, 60.02 166.49 80
9 11/06/2024 21:04:52 0.12, 61.52 -0.56, 64.56 347.19 80
10 11/08/2024 09:26:49 -0.09, 61.59 -0.62, 59.26 265.64 80
